Location: St. Louis
(38.6270°N, 90.1994°W)
Time: 02:00:50
(UTC-06:00)

Transit 4A - Pass Details

Date: 07 December 2021
Orbit: 863 x 981 km, 66.8° (Epoch: 24 January)

Event Time Altitude Azimuth Distance (km) Brightness Sun altitude
Rises 17:53:51 0° 198° (SSW) 3,437 11.4 -14.2°
Reaches altitude 10° 17:56:18 10° 196° (SSW) 2,511 10.6 -14.6°
Maximum altitude 18:02:03 67° 115° (ESE) 955 7.8 -15.7°
Enters shadow 18:06:37 17° 36° (NE) 2,095 9.3 -16.6°
Drops below altitude 10° 18:07:59 10° 34° (NNE) 2,591 - -16.8°
Sets 18:10:32 0° 31° (NNE) 3,555 - -17.3°
